Powrót do katalogu

SL-14 DEB

AktywnyPO
NORAD 39973·DEBRIS·🇷🇺 Russia

Wystrzelony Aug 18, 1987 z Plesetsk Cosmodrome

Loading…

Następne Przeloty (najbliższe 24 godziny)

TLE

ŚwieżeSource: Space-Track

Epoka: Sep 11, 2026, 13:46 UTC

1 39973U 87068CZ  26254.57381140  .00003350  00000-0  74922-3 0  9996
2 39973  83.0273 200.0238 0014610 260.7885  99.1664 14.56438374643147

Śledź SL-14 DEB w czasie rzeczywistym z AllMySat

Download on the App Store